TimeCDT,TemperatureF,Dew PointF,Humidity,Sea Level PressureIn,VisibilityMPH,Wind Direction,Wind SpeedMPH,Gust SpeedMPH,PrecipitationIn,Events,Conditions,WindDirDegrees,DateUTC
12:58 AM,68.9,65.8,90,30.06,10.0,SE,5.8,-,N/A,,Clear,140,2013-06-20 05:58:00
1:58 AM,69.1,66.9,93,30.05,10.0,SE,6.9,-,N/A,,Clear,130,2013-06-20 06:58:00
2:58 AM,66.6,66.6,100,30.05,10.0,SE,5.8,-,N/A,,Clear,140,2013-06-20 07:58:00
3:58 AM,66.9,66.9,100,30.06,10.0,SSE,4.6,-,N/A,,Clear,150,2013-06-20 08:58:00
4:58 AM,66.2,66.2,100,30.06,10.0,SSE,4.6,-,N/A,,Scattered Clouds,150,2013-06-20 09:58:00
5:58 AM,65.3,65.3,100,30.07,10.0,SE,5.8,-,N/A,,Clear,140,2013-06-20 10:58:00
6:58 AM,67.1,67.1,100,30.08,10.0,SSE,5.8,-,N/A,,Clear,150,2013-06-20 11:58:00
7:58 AM,70.7,67.6,90,30.09,10.0,SSE,6.9,-,N/A,,Clear,160,2013-06-20 12:58:00
8:58 AM,76.3,69.1,78,30.11,10.0,SE,4.6,-,N/A,,Clear,140,2013-06-20 13:58:00
9:56 AM,82.4,69.8,66,30.13,10.0,South,8.1,-,N/A,,Clear,170,2013-06-20 14:56:00
10:56 AM,82.4,69.8,66,30.12,10.0,SSE,9.2,17.3,N/A,,Partly Cloudy,160,2013-06-20 15:56:00
11:56 AM,84.2,68.0,58,30.12,10.0,South,9.2,-,N/A,,Partly Cloudy,170,2013-06-20 16:56:00
12:56 PM,86.0,68.0,55,30.12,10.0,South,6.9,16.1,N/A,,Partly Cloudy,180,2013-06-20 17:56:00
1:56 PM,86.0,68.0,55,30.11,10.0,South,11.5,18.4,N/A,,Clear,170,2013-06-20 18:56:00
2:56 PM,86.0,66.2,51,30.09,10.0,SSE,10.4,17.3,N/A,,Partly Cloudy,160,2013-06-20 19:56:00
3:33 PM,86.0,66.2,51,30.08,2.0,SSE,12.7,18.4,N/A,,Haze,160,2013-06-20 20:33:00
3:43 PM,86.0,66.2,51,30.08,3.0,SSE,15.0,18.4,N/A,,Haze,150,2013-06-20 20:43:00
3:56 PM,86.0,66.2,51,30.08,10.0,South,11.5,20.7,N/A,,Clear,170,2013-06-20 20:56:00
5:58 PM,85.6,66.2,52,30.04,10.0,SSE,10.4,-,N/A,,Clear,160,2013-06-20 22:58:00
7:58 PM,80.1,70.5,73,30.04,10.0,SSE,8.1,-,N/A,,Clear,150,2013-06-21 00:58:00
8:58 PM,76.5,69.6,79,30.04,10.0,SE,8.1,-,N/A,,Clear,140,2013-06-21 01:58:00
9:58 PM,74.8,68.7,81,30.08,10.0,SE,8.1,-,N/A,,Clear,140,2013-06-21 02:58:00
10:58 PM,73.8,68.4,83,30.10,10.0,SE,8.1,-,N/A,,Clear,140,2013-06-21 03:58:00
11:58 PM,73.0,68.2,85,30.11,10.0,SSE,8.1,-,N/A,,Scattered Clouds,150,2013-06-21 04:58:00